SCP
0 0 0 0 0 0 0 0 0 0 0 0 0 0 0 0 0 0 0 0 0 0 0 0 0 0 0 0 0 0 0 0 0 0 0 0 0 0 0 0 0 0 0
0 0 0 0 0 0 0 0 0 0 0 0 0 0 0 0 0 0 0 0 0 0 0 0 0 0 0 0 0 0 0 0 0 0 0 0 0 0 0 0 0 0 0
0 0 0 0 0 0 0 0 0 0 0 0 0 0 0 0 0 0 0 0 0 0 0 0 0 0 0 0 0 0 0 0 0 0 0 0 0 0 0 0 0 0 0
0 0 0 0 0 0 0 0 0 0 0 0 0 0 0 0 0 0 0 0 0 0 0 0 0 0 0 0 0 0 0 0 0 0 0 0 0 0 0 0 0 0 0
0 0 0 0 0 0 0 0 0 0 0 0 0 0 0 0 0 0 0 0 0 0 0 0 0 0 0 0 0 0 0 0 0 0 0 0 0 0 0 0 0 0 0
0 0 0 0 0 0 0 0 0 0 0 0 0 0 0 0 0 0 0 0 0 0 0 0 0 0 0 0 0 0 0 0 0 0 0 0 0 0 0 0 0 0 0
0 0 0 0 0 0 0 0 0 0 0 0 0 0 0 0 0 0 0 0 0 0 0 0 0 0 0 0 0 0 0 0 0 0 0 0 0 0 0 0 0 0 0
0 0 0 0 -0 0 0 0 0 0 0 0 0 0 0 0 0 0 0 0 0 0 0 0 0 0 0 0 0 0 0 0 0 0 0 0 0 0 0 0 0 0 0
0 0 0 0 0 0 0 0 0 0 0 0 0 0 0 0 0 0 0 0 0 0 0 0 0 0 0 0 0 0 0 0 0 0 0 0 0 0 0 0 0 0 0
0 0 0 0 0 0 0 0 0 0 0 0 0 0 0 0 -0 -0 0 0 0 0 0 0 0 0 0 0 0 0 0 0 0 0 0 0 0 0 0 0 0 0 0
0 0 0 0 0 0 0 0 0 0 0 0 0 0 0 0 -0 -0 0 0 0 0 0 0 0 0 0 0 0 0 0 0 0 0 0 0 0 0 0 0 0 0 0
0 -0 0 0 0 0 0 0 0 -0 -0 -0 0 -0 -0 0 0 0 0 0 0 0 0 0 0 0 0 0 0 0 0 0 0 0 0 0 0 0 0 0 0 0 0
-0 -0 0 0 0 0 0 0 0 0 0 0 -0 -0 0 0 0 0 0 0 -0 -0 -0 0 0 0 0 0 0 0 0 0 0 0 0 0 0 0 0 0 0 0 0
-0 0 0 0 0 0 0 0 0 0 0 0 0 -0 -0 -0 -0 0 0 0 0 0 -0 -0 0 0 0 0 0 0 0 0 0 0 0 0 0 0 0 0 0 0 0
0 0 -0 -0 0 0 0 0 0 0 0 0 -0 -0 -0 -0 -0 -0 -0 0 -0 0 0 0 -0 0 0 0 0 0 0 0 0 0 0 0 0 0 0 0 0 0 0
0 0 0 -0 -0 -0 -0 -0 -0 -0 -0 0 -0 -0 -0 -0 -0 -0 -0 -0 -0 -0 -0 0 0 -0 -0 0 0 0 0 0 0 0 0 0 0 0 0 0 0 0 0
0 0 0 0 -0 -0 -0 -0 -0 -0 -0 -0 -0 -0 -0 -0 -0 0 -0 -0 -0 -0 -0 -0 -0 0 0 -0 -0 0 0 0 0 0 0 0 0 0 0 0 0 0 0
0 0 0 -0 -0 -0 -0 -0 -0 -0 -0 -0 -0 -0 -0 -0 0 0 0 0 -0 0 0 0 0 0 0 -0 -0 -0 0 0 0 0 0 0 0 0 0 0 0 0 0
0 0 -0 -0 -0 -0 -0 -0 -0 -0 -0 -0 0 -0 0 -0 -0 -0 -0 0 0 0 0 0 0 0 0 0 0 -0 0 0 0 0 0 0 0 0 0 0 0 0 0
0 0 0 0 0 0 0 0 -0 -0 0 0 0 0 0 0 0 0 0 -0 -0 -0 -0 0 0 0 0 0 0 0 0 0 0 0 0 0 0 0 0 0 0 0 0
0 0 0 0 0 0 0 0 0 0 0 0 0 0 0 0 0 0 0 -0 -0 -0 0 0 0 0 0 0 0 0 0 0 0 0 0 0 0 0 0 0 0 0 0
0 0 0 0 0 0 0 0 0 0 0 0 0 0 0 0 0 0 0 0 -0 -0 0 0 0 -0 0 -0 0 0 0 0 0 0 0 0 0 0 0 0 0 0 0
0 0 0 0 0 0 0 0 0 0 0 0 0 0 0 0 0 0 0 0 0 0 0 0 0 0 0 0 -0 0 0 0 0 0 0 0 0 0 0 0 0 0 0
0 0 0 0 0 0 0 0 0 0 0 0 0 0 0 0 0 0 0 0 0 0 0 0 0 0 0 0 0 0 0 0 0 0 0 0 0 0 0 0 0 0 0
0 0 0 0 0 0 0 0 0 0 0 0 0 0 0 0 0 0 0 0 0 0 0 0 0 0 0 0 0 0 0 0 0 0 0 0 0 0 0 0 0 0 0
0 0 0 0 0 0 0 0 0 0 0 0 0 0 0 0 0 0 0 0 0 0 0 0 0 0 0 0 0 0 0 0 -0 0 0 0 0 0 0 0 0 0 0
Wind_Speed_500mb
34 32 36 32 27 21 22 31 39 42 55 66 77 91 103 107 110 112 109 106 105 101 96 92 88 88 87 81 74 69 62 59 52 39 30 25 21 19 19 19 19 20 19
31 40 50 45 36 25 27 33 34 39 49 56 65 75 86 99 100 109 115 113 111 107 102 99 97 95 92 87 82 78 73 69 61 48 33 20 22 24 25 25 25 24 21
40 49 54 54 50 46 37 31 37 38 41 46 55 62 77 80 90 99 102 108 109 110 104 103 102 99 97 95 90 87 83 77 69 61 33 17 16 24 31 34 34 31 27
40 43 50 59 59 54 45 37 32 29 31 40 46 54 60 70 76 82 90 100 102 106 107 107 105 102 100 99 97 90 86 83 77 69 66 51 26 17 14 35 42 42 39
41 46 51 57 64 64 58 49 38 30 25 23 30 44 47 51 53 63 68 72 82 103 109 109 109 107 105 103 98 94 92 87 81 77 73 64 51 42 27 17 33 43 44
38 46 52 58 68 67 62 57 51 44 36 29 25 29 36 41 52 58 62 62 63 75 102 109 112 110 108 107 102 97 93 89 88 84 77 72 62 58 43 30 26 31 42
43 52 62 65 66 64 59 58 61 57 45 36 29 25 26 34 43 44 49 57 59 62 71 100 110 112 110 107 105 101 98 97 96 90 84 77 72 63 52 43 40 34 40
46 51 54 56 56 61 63 59 56 57 59 53 42 33 25 25 31 38 42 47 52 57 59 67 96 108 109 108 106 103 102 101 98 95 92 86 80 72 64 56 50 38 37
36 40 43 45 48 52 55 59 60 56 55 56 53 47 36 29 31 29 36 43 47 51 55 61 69 91 106 108 109 109 107 104 101 100 99 93 86 80 72 64 58 53 41
33 34 35 40 46 47 50 51 49 53 53 51 51 54 54 45 35 31 36 38 40 46 51 58 64 72 89 105 108 114 109 109 108 108 104 100 96 89 83 74 67 61 56
32 33 35 37 42 47 47 48 53 55 52 48 48 47 50 52 50 43 36 39 44 44 47 55 60 69 79 89 103 113 116 114 112 113 111 107 103 99 93 85 76 71 64
25 23 27 32 34 39 44 46 50 54 58 57 51 49 46 46 51 52 49 44 40 46 54 56 63 67 74 82 94 105 121 122 117 118 114 113 111 107 101 94 87 80 71
18 20 24 32 33 36 40 46 50 52 53 55 59 59 52 47 45 49 55 52 50 50 44 47 63 67 76 81 89 94 109 124 120 119 118 117 118 115 111 105 96 88 82
14 21 23 29 32 37 45 52 54 57 62 59 57 61 62 62 61 51 44 51 55 55 57 55 53 55 63 77 86 96 100 111 118 125 120 118 123 122 121 112 105 98 92
19 20 21 21 26 32 40 41 46 55 59 64 67 65 62 62 65 66 64 57 49 52 58 59 61 61 63 70 78 88 97 104 111 119 123 123 127 126 127 123 117 109 102
27 29 29 29 28 29 36 47 49 50 54 58 63 68 76 75 70 72 72 71 69 66 60 61 62 65 65 71 75 75 82 95 109 118 122 125 127 133 133 129 121 116 112
29 36 40 41 39 40 52 54 58 60 58 56 56 64 74 80 83 81 80 76 78 76 72 71 66 63 67 62 67 70 74 79 94 109 116 121 127 134 136 135 126 122 116
29 39 45 49 49 55 63 64 70 71 70 69 71 73 75 80 85 88 89 89 87 86 86 81 77 76 77 67 57 61 70 80 86 99 110 118 123 132 139 138 133 132 123
36 42 60 63 69 70 72 80 87 88 87 85 83 83 84 83 84 88 92 97 101 100 98 97 90 84 84 81 67 56 63 80 89 92 104 112 125 130 131 136 138 134 129
51 60 70 74 72 76 82 92 95 93 95 93 96 97 96 97 97 97 99 100 102 111 111 108 105 96 92 83 82 63 62 77 88 89 102 110 119 115 122 120 131 137 139
63 64 66 70 72 78 78 89 95 98 88 88 99 102 103 111 117 118 116 114 113 113 116 121 117 109 98 90 83 80 69 74 81 91 99 107 110 104 111 98 116 134 131
58 67 66 71 80 83 86 98 108 98 96 97 104 110 110 109 112 114 124 124 121 118 120 120 125 120 111 97 87 81 82 71 79 88 95 97 98 94 100 90 102 106 113
55 67 75 83 89 96 94 94 111 101 109 115 120 115 106 103 100 96 100 93 104 104 114 105 102 118 113 104 91 87 80 77 83 90 102 94 90 73 77 86 105 95 107
67 72 80 90 102 106 105 101 105 103 106 110 112 103 93 93 88 84 81 81 82 83 84 81 85 89 84 100 91 90 81 72 72 84 98 92 77 70 81 86 97 94 103
61 67 83 93 101 97 97 95 97 95 95 93 91 88 84 83 82 80 79 78 80 77 81 82 73 73 78 81 66 71 74 63 66 76 93 92 85 69 81 90 102 95 100
70 79 84 86 90 91 95 95 89 80 82 85 83 81 83 84 83 84 88 79 77 79 83 89 91 102 97 83 72 65 59 51 46 75 89 85 86 77 88 91 97 99 99
Wind_Direction_500mb
330 358 6 355 330 315 302 296 283 270 260 252 242 237 239 239 238 239 239 237 235 232 229 229 230 228 228 228 226 224 220 220 220 220 223 232 240 245 245 236 229 225 224
19 22 27 24 12 349 313 287 278 275 269 259 255 245 241 240 240 239 239 238 237 234 230 229 229 229 227 225 224 224 220 219 219 214 215 216 234 236 230 228 218 215 220
23 20 21 20 13 5 354 327 296 283 267 260 256 248 242 240 241 241 242 240 237 237 234 233 231 230 228 228 228 225 224 223 218 216 207 198 211 211 227 226 222 221 222
30 31 29 31 28 23 16 5 341 303 291 279 259 254 254 253 252 251 250 248 242 239 237 236 235 232 230 229 228 227 226 224 222 217 220 225 220 186 198 229 231 231 235
30 31 34 36 35 32 28 22 10 354 333 310 284 273 264 260 258 259 261 260 254 242 238 237 238 235 231 231 231 228 225 226 227 224 222 223 225 228 211 205 225 225 229
38 31 30 33 33 32 33 35 35 28 19 5 333 305 285 272 266 270 269 268 263 252 242 238 237 238 237 234 232 230 230 229 229 227 229 232 227 225 220 213 217 222 224
40 35 31 27 25 30 32 32 31 30 27 19 8 348 322 298 287 279 277 273 270 268 258 243 239 238 238 238 236 232 229 228 228 229 229 231 232 239 237 228 224 213 218
35 36 30 25 23 19 19 24 29 26 25 24 14 357 340 321 310 300 288 282 281 275 268 261 247 243 241 240 239 237 235 231 229 229 230 231 230 231 234 232 227 215 218
34 29 23 24 16 16 16 13 11 13 14 16 16 12 355 340 324 310 301 293 284 279 276 269 261 250 246 243 242 239 236 235 233 232 231 231 231 230 231 231 230 227 213
28 24 17 13 7 7 2 2 6 10 10 4 4 8 11 1 340 325 311 299 292 286 279 272 266 260 252 247 243 242 238 236 234 233 232 231 230 230 230 230 231 231 231
12 7 6 6 360 358 2 0 358 359 4 8 2 358 358 358 3 355 331 310 299 291 282 276 270 267 261 253 246 244 242 238 236 235 234 232 231 230 229 228 229 230 229
8 4 6 3 0 356 355 357 359 357 358 358 355 357 354 351 352 351 350 344 319 298 289 279 270 265 262 260 253 246 245 241 236 237 236 234 232 230 230 229 229 231 231
20 7 6 5 360 357 355 353 353 353 353 353 351 348 348 348 345 342 342 341 335 333 312 286 277 272 267 261 258 255 250 247 244 239 238 237 237 233 230 228 228 228 230
18 10 359 353 350 347 344 341 342 343 343 345 344 343 343 344 343 341 333 330 332 331 328 324 299 278 273 267 262 259 254 252 248 245 241 239 240 238 235 231 230 229 227
360 351 339 324 333 336 336 332 330 332 334 335 336 336 334 334 334 333 334 332 326 319 320 320 319 309 287 275 270 264 260 256 254 250 246 241 241 240 239 236 233 230 227
340 337 331 324 310 314 319 325 326 326 326 322 322 324 325 327 329 328 326 326 326 324 314 301 307 306 306 292 277 271 266 262 256 252 249 245 242 241 239 237 236 237 233
329 329 325 320 313 310 319 321 319 316 314 311 310 314 316 317 318 320 321 322 322 321 320 316 308 297 297 300 288 272 266 264 261 257 253 250 247 244 240 238 236 235 235
312 323 321 317 315 310 313 315 316 313 308 305 302 304 306 306 308 310 312 313 313 314 313 313 310 305 296 292 294 276 265 262 259 260 255 253 251 249 243 237 234 234 232
296 315 322 316 315 315 315 315 314 313 310 306 304 303 302 299 299 300 302 304 305 305 305 305 306 304 297 294 288 282 268 261 257 255 258 253 251 250 246 240 235 233 231
289 305 312 311 310 311 312 311 311 311 309 309 306 304 301 298 296 294 293 294 295 298 299 298 297 298 297 295 289 280 268 262 258 256 254 251 251 249 248 244 238 234 230
287 299 308 308 308 310 310 308 308 306 307 304 302 300 298 298 296 296 293 291 290 289 289 291 291 290 290 291 287 281 266 263 255 246 245 247 243 239 241 236 240 239 233
295 303 305 304 305 307 308 307 305 307 304 300 297 296 295 293 293 293 292 291 289 287 284 284 285 286 286 289 286 281 275 263 249 244 243 243 244 243 239 227 229 230 228
300 303 305 306 307 309 310 306 305 303 300 298 296 295 293 291 290 288 288 286 287 286 284 283 281 281 281 283 284 280 274 269 243 241 243 242 246 235 220 216 223 226 226
306 308 309 309 309 310 310 307 305 305 302 299 298 297 295 293 290 286 282 281 279 278 276 275 273 274 274 276 276 275 275 268 256 237 243 239 240 233 227 214 213 217 223
307 309 312 312 311 313 312 313 311 311 308 305 301 299 296 294 292 286 283 279 275 272 274 271 269 270 269 267 271 271 271 268 258 238 234 229 225 227 213 212 207 211 214
312 314 314 315 318 318 315 317 319 317 312 304 301 298 296 294 292 290 288 284 278 275 271 269 267 268 263 266 265 262 264 259 249 230 220 216 220 220 206 203 201 203 207
Wind_Speed_850mb
34 32 36 32 27 21 22 31 39 42 55 66 77 91 103 107 110 112 109 106 105 101 96 92 88 88 87 81 74 69 62 59 52 39 30 25 21 19 19 19 19 20 19
31 40 50 45 36 25 27 33 34 39 49 56 65 75 86 99 100 109 115 113 111 107 102 99 97 95 92 87 82 78 73 69 61 48 33 20 22 24 25 25 25 24 21
40 49 54 54 50 46 37 31 37 38 41 46 55 62 77 80 90 99 102 108 109 110 104 103 102 99 97 95 90 87 83 77 69 61 33 17 16 24 31 34 34 31 27
40 43 50 59 59 54 45 37 32 29 31 40 46 54 60 70 76 82 90 100 102 106 107 107 105 102 100 99 97 90 86 83 77 69 66 51 26 17 14 35 42 42 39
41 46 51 57 64 64 58 49 38 30 25 23 30 44 47 51 53 63 68 72 82 103 109 109 109 107 105 103 98 94 92 87 81 77 73 64 51 42 27 17 33 43 44
38 46 52 58 68 67 62 57 51 44 36 29 25 29 36 41 52 58 62 62 63 75 102 109 112 110 108 107 102 97 93 89 88 84 77 72 62 58 43 30 26 31 42
43 52 62 65 66 64 59 58 61 57 45 36 29 25 26 34 43 44 49 57 59 62 71 100 110 112 110 107 105 101 98 97 96 90 84 77 72 63 52 43 40 34 40
46 51 54 56 56 61 63 59 56 57 59 53 42 33 25 25 31 38 42 47 52 57 59 67 96 108 109 108 106 103 102 101 98 95 92 86 80 72 64 56 50 38 37
36 40 43 45 48 52 55 59 60 56 55 56 53 47 36 29 31 29 36 43 47 51 55 61 69 91 106 108 109 109 107 104 101 100 99 93 86 80 72 64 58 53 41
33 34 35 40 46 47 50 51 49 53 53 51 51 54 54 45 35 31 36 38 40 46 51 58 64 72 89 105 108 114 109 109 108 108 104 100 96 89 83 74 67 61 56
32 33 35 37 42 47 47 48 53 55 52 48 48 47 50 52 50 43 36 39 44 44 47 55 60 69 79 89 103 113 116 114 112 113 111 107 103 99 93 85 76 71 64
25 23 27 32 34 39 44 46 50 54 58 57 51 49 46 46 51 52 49 44 40 46 54 56 63 67 74 82 94 105 121 122 117 118 114 113 111 107 101 94 87 80 71
18 20 24 32 33 36 40 46 50 52 53 55 59 59 52 47 45 49 55 52 50 50 44 47 63 67 76 81 89 94 109 124 120 119 118 117 118 115 111 105 96 88 82
14 21 23 29 32 37 45 52 54 57 62 59 57 61 62 62 61 51 44 51 55 55 57 55 53 55 63 77 86 96 100 111 118 125 120 118 123 122 121 112 105 98 92
19 20 21 21 26 32 40 41 46 55 59 64 67 65 62 62 65 66 64 57 49 52 58 59 61 61 63 70 78 88 97 104 111 119 123 123 127 126 127 123 117 109 102
27 29 29 29 28 29 36 47 49 50 54 58 63 68 76 75 70 72 72 71 69 66 60 61 62 65 65 71 75 75 82 95 109 118 122 125 127 133 133 129 121 116 112
29 36 40 41 39 40 52 54 58 60 58 56 56 64 74 80 83 81 80 76 78 76 72 71 66 63 67 62 67 70 74 79 94 109 116 121 127 134 136 135 126 122 116
29 39 45 49 49 55 63 64 70 71 70 69 71 73 75 80 85 88 89 89 87 86 86 81 77 76 77 67 57 61 70 80 86 99 110 118 123 132 139 138 133 132 123
36 42 60 63 69 70 72 80 87 88 87 85 83 83 84 83 84 88 92 97 101 100 98 97 90 84 84 81 67 56 63 80 89 92 104 112 125 130 131 136 138 134 129
51 60 70 74 72 76 82 92 95 93 95 93 96 97 96 97 97 97 99 100 102 111 111 108 105 96 92 83 82 63 62 77 88 89 102 110 119 115 122 120 131 137 139
63 64 66 70 72 78 78 89 95 98 88 88 99 102 103 111 117 118 116 114 113 113 116 121 117 109 98 90 83 80 69 74 81 91 99 107 110 104 111 98 116 134 131
58 67 66 71 80 83 86 98 108 98 96 97 104 110 110 109 112 114 124 124 121 118 120 120 125 120 111 97 87 81 82 71 79 88 95 97 98 94 100 90 102 106 113
55 67 75 83 89 96 94 94 111 101 109 115 120 115 106 103 100 96 100 93 104 104 114 105 102 118 113 104 91 87 80 77 83 90 102 94 90 73 77 86 105 95 107
67 72 80 90 102 106 105 101 105 103 106 110 112 103 93 93 88 84 81 81 82 83 84 81 85 89 84 100 91 90 81 72 72 84 98 92 77 70 81 86 97 94 103
61 67 83 93 101 97 97 95 97 95 95 93 91 88 84 83 82 80 79 78 80 77 81 82 73 73 78 81 66 71 74 63 66 76 93 92 85 69 81 90 102 95 100
70 79 84 86 90 91 95 95 89 80 82 85 83 81 83 84 83 84 88 79 77 79 83 89 91 102 97 83 72 65 59 51 46 75 89 85 86 77 88 91 97 99 99
Wind_Direction_850mb
330 358 6 355 330 315 302 296 283 270 260 252 242 237 239 239 238 239 239 237 235 232 229 229 230 228 228 228 226 224 220 220 220 220 223 232 240 245 245 236 229 225 224
19 22 27 24 12 349 313 287 278 275 269 259 255 245 241 240 240 239 239 238 237 234 230 229 229 229 227 225 224 224 220 219 219 214 215 216 234 236 230 228 218 215 220
23 20 21 20 13 5 354 327 296 283 267 260 256 248 242 240 241 241 242 240 237 237 234 233 231 230 228 228 228 225 224 223 218 216 207 198 211 211 227 226 222 221 222
30 31 29 31 28 23 16 5 341 303 291 279 259 254 254 253 252 251 250 248 242 239 237 236 235 232 230 229 228 227 226 224 222 217 220 225 220 186 198 229 231 231 235
30 31 34 36 35 32 28 22 10 354 333 310 284 273 264 260 258 259 261 260 254 242 238 237 238 235 231 231 231 228 225 226 227 224 222 223 225 228 211 205 225 225 229
38 31 30 33 33 32 33 35 35 28 19 5 333 305 285 272 266 270 269 268 263 252 242 238 237 238 237 234 232 230 230 229 229 227 229 232 227 225 220 213 217 222 224
40 35 31 27 25 30 32 32 31 30 27 19 8 348 322 298 287 279 277 273 270 268 258 243 239 238 238 238 236 232 229 228 228 229 229 231 232 239 237 228 224 213 218
35 36 30 25 23 19 19 24 29 26 25 24 14 357 340 321 310 300 288 282 281 275 268 261 247 243 241 240 239 237 235 231 229 229 230 231 230 231 234 232 227 215 218
34 29 23 24 16 16 16 13 11 13 14 16 16 12 355 340 324 310 301 293 284 279 276 269 261 250 246 243 242 239 236 235 233 232 231 231 231 230 231 231 230 227 213
28 24 17 13 7 7 2 2 6 10 10 4 4 8 11 1 340 325 311 299 292 286 279 272 266 260 252 247 243 242 238 236 234 233 232 231 230 230 230 230 231 231 231
12 7 6 6 360 358 2 0 358 359 4 8 2 358 358 358 3 355 331 310 299 291 282 276 270 267 261 253 246 244 242 238 236 235 234 232 231 230 229 228 229 230 229
8 4 6 3 0 356 355 357 359 357 358 358 355 357 354 351 352 351 350 344 319 298 289 279 270 265 262 260 253 246 245 241 236 237 236 234 232 230 230 229 229 231 231
20 7 6 5 360 357 355 353 353 353 353 353 351 348 348 348 345 342 342 341 335 333 312 286 277 272 267 261 258 255 250 247 244 239 238 237 237 233 230 228 228 228 230
18 10 359 353 350 347 344 341 342 343 343 345 344 343 343 344 343 341 333 330 332 331 328 324 299 278 273 267 262 259 254 252 248 245 241 239 240 238 235 231 230 229 227
360 351 339 324 333 336 336 332 330 332 334 335 336 336 334 334 334 333 334 332 326 319 320 320 319 309 287 275 270 264 260 256 254 250 246 241 241 240 239 236 233 230 227
340 337 331 324 310 314 319 325 326 326 326 322 322 324 325 327 329 328 326 326 326 324 314 301 307 306 306 292 277 271 266 262 256 252 249 245 242 241 239 237 236 237 233
329 329 325 320 313 310 319 321 319 316 314 311 310 314 316 317 318 320 321 322 322 321 320 316 308 297 297 300 288 272 266 264 261 257 253 250 247 244 240 238 236 235 235
312 323 321 317 315 310 313 315 316 313 308 305 302 304 306 306 308 310 312 313 313 314 313 313 310 305 296 292 294 276 265 262 259 260 255 253 251 249 243 237 234 234 232
296 315 322 316 315 315 315 315 314 313 310 306 304 303 302 299 299 300 302 304 305 305 305 305 306 304 297 294 288 282 268 261 257 255 258 253 251 250 246 240 235 233 231
289 305 312 311 310 311 312 311 311 311 309 309 306 304 301 298 296 294 293 294 295 298 299 298 297 298 297 295 289 280 268 262 258 256 254 251 251 249 248 244 238 234 230
287 299 308 308 308 310 310 308 308 306 307 304 302 300 298 298 296 296 293 291 290 289 289 291 291 290 290 291 287 281 266 263 255 246 245 247 243 239 241 236 240 239 233
295 303 305 304 305 307 308 307 305 307 304 300 297 296 295 293 293 293 292 291 289 287 284 284 285 286 286 289 286 281 275 263 249 244 243 243 244 243 239 227 229 230 228
300 303 305 306 307 309 310 306 305 303 300 298 296 295 293 291 290 288 288 286 287 286 284 283 281 281 281 283 284 280 274 269 243 241 243 242 246 235 220 216 223 226 226
306 308 309 309 309 310 310 307 305 305 302 299 298 297 295 293 290 286 282 281 279 278 276 275 273 274 274 276 276 275 275 268 256 237 243 239 240 233 227 214 213 217 223
307 309 312 312 311 313 312 313 311 311 308 305 301 299 296 294 292 286 283 279 275 272 274 271 269 270 269 267 271 271 271 268 258 238 234 229 225 227 213 212 207 211 214
312 314 314 315 318 318 315 317 319 317 312 304 301 298 296 294 292 290 288 284 278 275 271 269 267 268 263 266 265 262 264 259 249 230 220 216 220 220 206 203 201 203 207